CXBN-2

Last updated on March 2, 2019, 12:02 a.m. UTC

1 42704U 98067LM  19059.52249959  .04259319  12249-4  63401-3 0  9998
2 42704  51.6124 101.1040 0002748  40.6309 108.8739 16.33621154102537

Satellite is not in orbit.